Location: Jackson Park
(37.2862°N, 79.9123°W)
Time: 01:56:00
(UTC+00:00)

SR - Pass Details

Date: 18 May 2026
Orbit: 567 x 853 km, 66.7° (Epoch: 11 June)

Event Time Altitude Azimuth Distance (km) Brightness Sun altitude
Rises 22:11:42 0° 312° (NW) 3,415 ? 24.3°
Reaches altitude 10° 22:15:12 10° 291° (WNW) 2,482 ? 23.6°
Maximum altitude 22:18:25 15° 257° (WSW) 2,113 ? 23.0°
Drops below altitude 10° 22:21:36 10° 222° (SW) 2,452 ? 22.4°
Sets 22:25:03 0° 201° (SSW) 3,351 ? 21.7°
